Overview Statistics Trail Chart Weather Telemetry Raw packets
 

This is the latest recevied weather packets stored in our database for station/object ac2ev. If no packets are shown the sender has not sent any weather packets the latest 10 day(s).

<< 85 86 87 88 89 90 91 >>
Time Temp. Humidity Pressure Rain* Wind** Luminosity Snow
1788029190 25.56° C 50% 1021 hPa 0 mm - - -
1788028891 25.56° C 51% 1021.2 hPa 0 mm - - -
1788028590 25° C 52% 1021.4 hPa 0 mm - - -
1788028291 25° C 51% 1021.4 hPa 0 mm - - -
1788027990 25° C 54% 1021.5 hPa 0 mm - - -
1788027691 24.44° C 52% 1021.6 hPa 0 mm - - -
1788027390 24.44° C 54% 1021.7 hPa 0 mm - - -
1788027091 24.44° C 54% 1021.6 hPa 0 mm - - -
1788026790 24.44° C 54% 1021.7 hPa 0 mm - - -
1788026485 24.44° C 55% 1021.8 hPa 0 mm - - -
1788026180 24.44° C 54% 1021.9 hPa 0 mm - - -
1788025874 23.89° C 55% 1022 hPa 0 mm - - -
1788025568 23.89° C 54% 1022.1 hPa 0 mm - - -
1788025267 23.89° C 55% 1022 hPa 0 mm - - -
1788024968 23.89° C 53% 1022 hPa 0 mm - - -
1788024668 23.89° C 52% 1022 hPa 0 mm - - -
1788024367 23.89° C 51% 1022.2 hPa 0 mm - - -
1788024068 23.89° C 53% 1022.1 hPa 0 mm - - -
1788023768 23.89° C 53% 1022.2 hPa 0 mm - - -
1788023468 23.33° C 54% 1022.3 hPa 0 mm - - -
1788023168 23.33° C 57% 1022.3 hPa 0 mm - - -
1788022867 22.78° C 58% 1022.4 hPa 0 mm - - -
1788022567 22.78° C 58% 1022.3 hPa 0 mm - - -
1788022268 22.22° C 60% 1022.5 hPa 0 mm - - -
1788021968 22.22° C 59% 1022.7 hPa 0 mm - - -

* Rain latest hour (hover to see other rain measurements)
** Current wind speed in m/s (hover to see current wind gust speed)